Voltar ao catálogo

SL-16 DEB

AtivoLEO
NORAD 23409·DEBRIS·🇷🇺 Russia

Lançado Nov 24, 1994 de Baikonur Cosmodrome

Loading…

Próximas Passagens (próximas 24 horas)

TLE

AtualizadoSource: Space-Track

Época: Sep 14, 2026, 05:44 UTC

1 23409U 94077F   26257.23929710  .00000099  00000-0  97117-4 0  9997
2 23409  70.8807 191.8348 0089616 162.9700 197.4456 13.98981621622597

Acompanhe SL-16 DEB em tempo real com AllMySat

Download on the App Store